Preview of NWS' New Version of Forecast
This preview is not operational and should not be used for support decisions.

Regional Weather Roundup (RWR)

Issued by National Weather Service (NWS)

                            
000
ASCA42 TJSJ 182010
RWRPR 
PUERTO RICO/U.S. VIRGIN ISLANDS HOURLY WEATHER ROUNDUP
NATIONAL WEATHER SERVICE SAN JUAN PR
400 PM AST WED SEP 18 2019

PRZ001>002-007>008-010-182100-
PUERTO RICO
  
CITY           SKY/WX    TMP DP  RH WIND       PRES   REMARKS
SAN JUAN LMM   MOSUNNY   90  75  62 E15       29.81S HX 100           
AGUADILLA      PTSUNNY   84  79  84 E12       29.82F HX  96           
CEIBA          PTSUNNY   86  77  74 SE12      29.84S HX  97           
$$

VIZ001>002-182100-
U.S. VIRGIN ISLANDS
  
CITY           SKY/WX    TMP DP  RH WIND       PRES   REMARKS
CHARLOTTE AMA  SUNNY     88  73  62 SE12      29.82S HX  96           
CHRISTIANSTED  MOSUNNY   88  73  62 E13       29.83S HX  96           
$$

HOURLY WEATHER ROUNDUP FOR THE NEWS MEDIA
  
CITY           SKY/WX    TMP DP  RH WIND       PRES   REMARKS
ORLANDO        TSTM      82  73  74 NW8       29.96F                  
NEW YORK       FAIR      69  48  47 NE10G22   30.25R                  
NEWARK         FAIR      70  48  45 NE14      30.24R                  
CHICAGO        PTSUNNY   81  62  52 S9        30.08F                  
HARTFORD       PTSUNNY   61  44  53 N8        30.26R                  
BOSTON         FAIR      63  42  46 NE17      30.31R                  
DALLAS         MOSUNNY   93  70  46 E9G16     29.88F HX  99           
PHILADELPHIA   FAIR      75  46  35 NE10      30.21S                  
LOS ANGELES    MOSUNNY   77  61  57 W12       29.92F                  
WASHINGTON DC  PTSUNNY   78  48  34 CALM      30.19S